Regional Weather Roundup
Issued by NWS

Home | Current Version | Previous Version | Text Only | Print | Product List | Glossary On
Versions: 1 2 3 4 5 6 7 8 9 10 11 12 13 14 15 16 17 18 19 20 21 22 23 24 25 26 27 28 29 30 31 32 33 34 35 36 37 38 39 40 41 42 43 44 45 46 47 48 49 50
000
ASUS43 KMPX 231810
RWRMN
WEATHER ROUNDUP FOR MINNESOTA
NATIONAL WEATHER SERVICE TWIN CITIES/CHANHASSEN MN
100 PM CDT THU OCT 23 2014


NOTE: "FAIR" INDICATES FEW OR NO CLOUDS BELOW 12,000 FEET WITH NO
SIGNIFICANT WEATHER AND/OR OBSTRUCTIONS TO VISIBILITY. N/A MEANS
CURRENT SKY AND/OR WEATHER CONDITIONS ARE NOT AVAILABLE.

MNZ060>063-068>070-231900-
   Twin Cities Metro

CITY           SKY/WX    TMP DP  RH WIND       PRES   REMARKS
TWIN CITIES    MOSUNNY   61  51  70 W3        30.00S
6HR MIN TEMP:  52; 6HR MAX TEMP:  62;

ST PAUL        MOSUNNY   61  52  72 CALM      30.00F
CRYSTAL        SUNNY     61  51  70 VRB3      29.98F
BLAINE         MOSUNNY   63  55  77 SW6       29.99
LAKEVILLE      SUNNY     59  52  77 W3        29.99F
EDEN PRAIRIE   SUNNY     61  52  72 SW8       29.98F
6HR MIN TEMP:  53; 6HR MAX TEMP:  61;

SOUTH ST PAUL  SUNNY     61  53  72 SW3       29.99F
LAKE ELMO      PTSUNNY   57  52  82 CALM      30.01F
$$
MNZ001>005-007-008-013>017-022>024-027-028-231900-
   Northwest Minnesota

CITY           SKY/WX    TMP DP  RH WIND       PRES   REMARKS
BEMIDJI        SUNNY     65  41  41 W12       29.90S
HALLOCK        SUNNY     61  46  59 SW8       29.82F
ROSEAU         SUNNY     61  48  63 SW12      29.83S
WARROAD        SUNNY     61  50  67 SW12      29.83F
THIEF RVR FALL SUNNY     59  45  58 SW9       29.87F
CROOKSTON      SUNNY     61  46  59 SW12      29.88F
FOSSTON        SUNNY     61  46  59 S9        29.90F
DETROIT LAKES  SUNNY     61  43  51 SW9       29.93F
MOORHEAD       SUNNY     61  48  63 S9        29.91F
PARK RAPIDS    SUNNY     61  47  59 VRB6      29.93F
MAHNOMEN       FAIR      61  44  53 SW8       29.90F
$$
MNZ006-009>011-018-025>026-231900-
   North Central Minnesota

CITY           SKY/WX    TMP DP  RH WIND       PRES   REMARKS
BAUDETTE       SUNNY     64  44  48 SW14      29.83F
FLAG ISLAND    PTSUNNY   52  46  82 S13       29.80F
INTL FALLS     SUNNY     62  47  57 SW10G18   29.86F
6HR MIN TEMP:  49; 6HR MAX TEMP:  63;

WASKISH        SUNNY     63  46  55 SW10      29.88S
BIG FORK       SUNNY     63  50  63 S7        29.91F
LONGVILLE      SUNNY     59  50  72 SW8       29.93F
GRAND RAPIDS   CLOUDY    54  48  82 S9        29.94S
CRANE LAKE     MOSUNNY   55  48  76 S6        29.91F
ORR            MOSUNNY   61  48  63 CALM      29.88F
COOK           SUNNY     57  48  72 SE6       29.92F
WALKER         FAIR      60  46  61 S7        29.92F
$$
MNZ012-019>021-037-231900-
   Northeast Minnesota

CITY           SKY/WX    TMP DP  RH WIND       PRES   REMARKS
DULUTH         CLOUDY    52  48  86 W8        29.96S FOG
6HR MIN TEMP:  48; 6HR MAX TEMP:  52; 6HR PCP: TRACE;

ELY            CLOUDY    52  46  82 SW6       29.94S
HIBBING        CLOUDY    54  49  83 S7        29.94F
EVELETH        CLOUDY    52  50  93 S6        29.95F
DULUTH HARBOR  CLOUDY    54  50  87 SW8       29.97F
TWO HARBORS    CLOUDY    54  41  62 SW3       29.94F HAZE
SILVER BAY     CLOUDY    50  48  93 SW3       29.94F FOG
GRAND MARAIS     N/A     48  46  93 W3        29.97F
G MARAIS ARPRT DRZL/FOG  45  41  87 S6        29.96S VSB<1/4
$$
MNZ029>031-032-039>041-046>048-054>057-064-231900-
   West Central Minnesota

CITY           SKY/WX    TMP DP  RH WIND       PRES   REMARKS
FERGUS FALLS   SUNNY     61  43  51 S8        29.94F
WHEATON        SUNNY     64  37  36 SW10      29.95F
MORRIS         SUNNY     64  48  55 SW7       29.95F
ALEXANDRIA     SUNNY     61  46  57 SW9       29.98S
ELBOW LAKE     FAIR      62  46  57 S7        29.95F
WADENA         SUNNY     61  46  59 W7        29.94F
GLENWOOD       SUNNY     63  46  55 SW8       29.98S
APPLETON       SUNNY     70  45  40 SW7       29.96F
BENSON         SUNNY     63  46  55 W7        29.97F
ORTONVILLE     SUNNY     70  36  28 SW9       29.96F
MADISON        SUNNY     72  37  28 W7        29.97F
WILLMAR        FAIR      63  46  55 W7        30.00S
$$
MNZ033>034-036-042>043-049>051-058-059-231900-
   Central Minnesota

CITY           SKY/WX    TMP DP  RH WIND       PRES   REMARKS
ST CLOUD       MOSUNNY   57  51  80 S3        29.98F
6HR MIN TEMP:  52; 6HR MAX TEMP:  58;

SAUK CENTRE    FAIR      63  46  53 W8        29.97F
PAYNESVILLE    SUNNY     60  51  69 CALM      29.98F
AITKIN         PTSUNNY   61  52  72 S3        29.95S
PINE RIVER     SUNNY     59  48  67 S8        29.97F
BRAINERD       SUNNY     57  50  77 S8        29.96F
STAPLES        SUNNY     61  48  63 SW5       29.95F
LONG PRAIRIE   FAIR      61  46  59 SW7       29.97S
LITTLE FALLS   SUNNY     55  48  76 CALM      29.97S
LITCHFIELD     SUNNY     64  55  72 W5        29.99S
BUFFALO        MOSUNNY   57  51  79 S3        30.00F
MAPLE LAKE     MOSUNNY   58  53  85 S5        29.99F
$$
MNZ037-044-045-052-053-231900-
   East Central Minnesota

CITY           SKY/WX    TMP DP  RH WIND       PRES   REMARKS
PRINCETON      CLOUDY    57  54  88 S6        29.98F
MORA           PTSUNNY   54  50  87 SW5       29.99F
CAMBRIDGE      MOSUNNY   59  48  67 SW3       29.97S
RUSH CITY      CLOUDY    56  52  87 SW5       29.99F
MOOSE LAKE     CLOUDY    54  50  87 S6        29.96S
HINCKLEY       CLOUDY    54  52  94 SW6       29.98F
CLOQUET        CLOUDY    52  48  87 SW5       29.96F
MCGREGOR       CLOUDY    54  50  87 SW7       29.97F
$$
MNZ071>073-080-081-089-090-097-098-231900-
   Southwest Minnesota

CITY           SKY/WX    TMP DP  RH WIND       PRES   REMARKS
MONTEVIDEO     SUNNY     66  66 100 W5        29.99F
GRANITE FALLS  SUNNY     65  50  58 SW3       30.00F
CANBY          SUNNY     68  39  34 W9        29.99F
MARSHALL       SUNNY     68  39  34 W6        29.99S
REDWOOD FALLS  SUNNY     65  46  50 W7        29.99F
OLIVIA         SUNNY     63  46  55 SW7       29.98F
PIPESTONE      SUNNY     64  45  48 W5        30.01F
WINDOM         SUNNY     68  48  49 SW8       30.00F
WORTHINGTON    SUNNY     64  46  52 W10       30.03F
JACKSON        SUNNY     66  45  45 SW10      30.02F
TRACY          SUNNY     69  42  38 W8        30.00F
SLAYTON        SUNNY     64  44  48 W9        30.02F
$$
MNZ065>067-074>077-082>085-091>093-231900-
   South Central Minnesota

CITY           SKY/WX    TMP DP  RH WIND       PRES   REMARKS
MANKATO        SUNNY     64  48  55 SW8       30.00F
NEW ULM        SUNNY     64  48  55 W6        29.99F
ST JAMES       SUNNY     66  48  52 SW5       30.01F
FAIRMONT       SUNNY     66  19  16 W7        30.01F
GLENCOE        SUNNY     63  53  69 SW3       29.98F
FARIBAULT      PTSUNNY   57  54  88 CALM      30.01F
OWATONNA       SUNNY     59  52  77 CALM      30.01F
WASECA         SUNNY     61  48  63 S6        30.03F
ALBERT LEA     MOSUNNY   57  57 100 W3        30.01F
$$
MNZ078>079-086>088-094>096-231900-
   Southeast Minnesota

CITY           SKY/WX    TMP DP  RH WIND       PRES   REMARKS
ROCHESTER      CLOUDY    52  50  93 SW6       30.03F
6HR MIN TEMP:  48; 6HR MAX TEMP:  53; 6HR PCP:  0.17;

RED WING         N/A     54  52  94 W3        30.01
STANTON        CLOUDY    56  52  86 SW5       30.00F
DODGE CENTER   CLOUDY    54  52  94 W10       30.02F
WINONA         CLOUDY    52  48  87 S3        30.04S
AUSTIN         CLOUDY    54  52  94 W5        30.02S
PRESTON        CLOUDY    48  47  95 S6        30.03F FOG
$$
ABBREVIATIONS USED IN REMARKS
   TC - TEMPERATURES IN CELSIUS
  WCI - WIND CHILL INDEX
   HX - HEAT INDEX
  VSB - VISIBILITY
$$



USA.gov is the U.S. government's official web portal to all federal, state and local government web resources and services.